Sunday, November 19, 2017, 8:59 PM EST
Back to Local

KIWI, Wiscasset Municipal Airport

Location: Wiscasset, ME, United States Lat: 43.967
Local Time: 8:59 PM EST ( 1:59 GMT) Lon: -69.717
Time Zone: US/Eastern Elev: 68 ft

Show me the last for .
Show Decoded

2017-11-19 19:53 METAR KIWI 200053Z AUTO 30008G20KT 230V010 10SM BKN041 02/M06 A2945 RMK AO2
                 SLP971 T00171056 =
2017-11-19 18:53 METAR KIWI 192353Z AUTO 28008G18KT 210V330 10SM CLR 02/M04 A2940 RMK AO2 PRESRR
                 SLP957 60002 T00221044 10133 20022 51070 =
2017-11-19 17:53 METAR KIWI 192253Z AUTO 30009G16KT 10SM CLR 03/M03 A2934 RMK AO2 SLP937
                 T00331028 =
2017-11-19 16:53 METAR KIWI 192153Z AUTO 29011G17KT 240V320 10SM CLR 04/M02 A2929 RMK AO2 SLP919
                 T00441017 =
2017-11-19 15:53 METAR KIWI 192053Z AUTO 28015G25KT 10SM BKN065 07/01 A2920 RMK AO2 SLP886 60002
                 T00670006 53053 =
2017-11-19 15:08 METAR KIWI 192008Z AUTO 29009G18KT 10SM FEW022 BKN044 OVC050 08/04 A2914 RMK AO2
                 T00830039 =
2017-11-19 14:53 METAR KIWI 191953Z AUTO VRB06KT 10SM FEW017 BKN022 OVC042 09/05 A2913 RMK AO2 PK
                 WND 27026/1929 PRESRR SLP863 T00890050 =
2017-11-19 13:53 METAR KIWI 191853Z AUTO VRB05KT 10SM FEW011 BKN023 OVC085 13/12 A2905 RMK AO2
                 RAE20 SLP835 P0002 T01330117 =
2017-11-19 13:49 METAR KIWI 191849Z AUTO 25006G15KT 10SM FEW011 BKN023 OVC080 13/12 A2904 RMK AO2
                 RAE20 P0002 =
2017-11-19 12:53 METAR KIWI 191753Z AUTO 21010G19KT 6SM -RA BR BKN010 OVC025 13/12 A2904 RMK AO2
                 SLP833 P0006 60028 T01330122 10139 20128 56018 =
2017-11-19 12:51 METAR KIWI 191751Z AUTO 21011G19KT 6SM -RA BR OVC010 13/12 A2904 RMK AO2 P0006 =
2017-11-19 11:53 METAR KIWI 191653Z AUTO 19011G20KT 160V220 6SM -RA BR OVC008 14/13 A2905 RMK AO2
                 PK WND 20027/1611 RAB21 CIG 006V011 SLP837 P0000 T01390128 =
2017-11-19 10:53 METAR KIWI 191553Z AUTO 20014G23KT 9SM OVC007 14/13 A2909 RMK AO2 RAB1458E42 CIG
                 005V011 SLP851 P0003 T01390128 =
2017-11-19 09:53 METAR KIWI 191453Z AUTO 20011G19KT 7SM OVC005 14/13 A2913 RMK AO2 RAE50 SLP862
                 P0001 60019 T01390133 58024 =
2017-11-19 08:53 METAR KIWI 191353Z AUTO 20012G23KT 4SM RA BR OVC006 14/13 A2916 RMK AO2 SLP874
                 P0008 T01390133 =
2017-11-19 08:05 METAR KIWI 191305Z AUTO 20008G14KT 3SM RA BR OVC005 13/13 A2919 RMK AO2 P0002
                 T01330128 =
2017-11-19 07:53 METAR KIWI 191253Z AUTO 19009G18KT 2SM RA BR OVC006 13/13 A2920 RMK AO2 CIG
                 004V009 SLP887 P0010 T01330128 =
2017-11-19 07:50 METAR KIWI 191250Z AUTO 19012G18KT 2SM RA BR OVC006 13/13 A2920 RMK AO2 CIG
                 004V009 P0009 =
2017-11-19 06:53 METAR KIWI 191153Z AUTO 17008G15KT 7SM -RA BKN007 OVC010 13/12 A2921 RMK AO2
                 SLP891 P0006 60035 70043 T01330122 10133 20094 56045 =
2017-11-19 05:53 METAR KIWI 191053Z AUTO 19007KT 5SM RA BR OVC008 12/12 A2925 RMK AO2 CIG 005V012
                 SLP906 P0010 T01220117 =
2017-11-19 05:25 METAR KIWI 191025Z AUTO 19008KT 4SM -RA BR OVC005 12/12 A2927 RMK AO2 PRESFR
                 P0006 T01220117 =
2017-11-19 04:53 METAR KIWI 190953Z AUTO VRB05KT 5SM -RA BR BKN004 OVC008 12/11 A2929 RMK AO2
                 SLP919 P0006 T01170111 =
2017-11-19 03:53 METAR KIWI 190853Z AUTO 25003KT 8SM -RA BKN004 OVC011 10/10 A2934 RMK AO2 CIG
                 003V008 SLP937 P0004 60013 T01000100 58045 =
2017-11-19 03:41 METAR KIWI 190841Z AUTO 18003KT 8SM -RA BKN008 OVC015 10/09 A2935 RMK AO2 CIG
                 005V010 P0004 T01000094 =
2017-11-19 03:34 METAR KIWI 190834Z AUTO VRB03KT 7SM -RA BKN010 OVC017 10/09 A2936 RMK AO2 CIG
                 006V014 P0004 T01000094 =
2017-11-19 03:17 METAR KIWI 190817Z AUTO 20005KT 6SM -RA BR SCT008 OVC019 10/09 A2937 RMK AO2
                 P0002 T01000094 =
2017-11-19 02:53 METAR KIWI 190753Z AUTO 20007KT 5SM RA BR BKN008 BKN024 OVC034 11/10 A2940 RMK
                 AO2 CIG 005V011 SLP955 P0005 T01060100 =
2017-11-19 02:35 METAR KIWI 190735Z AUTO 20006KT 7SM -RA BKN009 BKN027 OVC050 11/11 A2941 RMK AO2
                 CIG 006V014 P0002 T01110106 =
2017-11-19 02:26 METAR KIWI 190726Z AUTO 19006KT 8SM -RA FEW006 BKN010 OVC049 11/11 A2941 RMK AO2
                 CIG 007V016 P0001 T01110106 =
2017-11-19 01:53 METAR KIWI 190653Z AUTO 19007KT 4SM -RA BR OVC006 11/10 A2944 RMK AO2 SLP968
                 P0004 T01060100 =
2017-11-19 01:45 METAR KIWI 190645Z AUTO VRB04KT 3SM -RA BR OVC004 10/09 A2944 RMK AO2 P0003
                 T01000094 =
2017-11-19 01:13 METAR KIWI 190613Z AUTO VRB03KT 4SM -RA BR SCT006 BKN009 OVC027 09/09 A2946 RMK
                 AO2 P0001 T00940094 =
2017-11-19 00:58 METAR KIWI 190558Z AUTO 18004KT 4SM -RA BR SCT006 BKN018 OVC035 10/09 A2947 RMK
                 AO2 P0000 T01000089 =
2017-11-19 00:53 METAR KIWI 190553Z AUTO VRB05KT 4SM -RA BR BKN007 BKN010 OVC025 10/09 A2948 RMK
                 AO2 SLP982 P0003 60008 T01000089 10106 20056 56042 =
2017-11-19 00:25 METAR KIWI 190525Z AUTO 18005KT 6SM -RA BR BKN008 BKN024 OVC037 10/09 A2950 RMK
                 AO2 P0001 T01000094 =
2017-11-19 00:17 METAR KIWI 190517Z AUTO 18008KT 5SM -RA BR SCT008 BKN024 OVC037 10/09 A2950 RMK
                 AO2 P0001 T01000094 =
2017-11-18 23:53 METAR KIWI 190453Z AUTO 19005KT 5SM -RA BR BKN006 OVC015 11/09 A2951 RMK AO2
                 RAE15B32 CIG 005V011 SLP994 P0001 T01060094 401061056 =
2017-11-18 23:33 METAR KIWI 190433Z AUTO 20007KT 7SM -RA BKN009 OVC014 11/09 A2953 RMK AO2
                 RAE15B32 CIG 006V011 P0000 T01060094 =
2017-11-18 23:26 METAR KIWI 190426Z AUTO 19009KT 8SM FEW007 BKN010 OVC016 11/09 A2954 RMK AO2
                 RAE15 P0000 T01060094 =
2017-11-18 23:10 METAR KIWI 190410Z AUTO 16007KT 110V200 10SM -RA BKN008 BKN019 OVC026 10/09
                 A2954 RMK AO2 CIG 007V013 P0000 T01000094 =
2017-11-18 22:53 METAR KIWI 190353Z AUTO VRB05KT 10SM -RA FEW010 BKN023 OVC043 10/09 A2956 RMK
                 AO2 SLP009 P0002 T01000089 =
2017-11-18 22:35 METAR KIWI 190335Z AUTO VRB05KT 10SM -RA SCT010 BKN021 OVC049 09/08 A2957 RMK
                 AO2 P0001 T00940083 =
2017-11-18 21:53 METAR KIWI 190253Z AUTO VRB04KT 9SM -RA BKN011 OVC022 08/07 A2960 RMK AO2 RAB25
                 SLP024 P0002 60002 T00780067 58016 =
2017-11-18 21:48 METAR KIWI 190248Z AUTO 25004KT 9SM -RA FEW008 BKN013 OVC022 08/07 A2961 RMK AO2
                 RAB25 P0001 =
2017-11-18 21:07 METAR KIWI 190207Z AUTO 00000KT 6SM BR BKN011 OVC018 06/04 A2963 RMK AO2 P0001
                 T00560044 =

Support USWX by starting your Amazon purchase here.